Terminal Aerodrome Forecast
Issued by NWS

Home | Current Version | Previous Version | Text Only | Print | Product List | Glossary On
Versions: 1 2 3 4 5 6 7 8 9 10 11 12 13 14
000
FTUS44 KTSA 260826 AAA
TAFMLC
TAF AMD
KMLC 260826Z 2608/2706 VRB03KT P6SM SCT070 BKN100
     FM261400 VRB03KT P6SM VCTS SCT050CB BKN100
     FM261600 12004KT P6SM SCT050 BKN200 PROB30 2618/2624 4SM TSRA
      BKN050CB
     FM270000 08003KT P6SM BKN100=

USA.gov is the U.S. government's official web portal to all federal, state and local government web resources and services.